Vorticity
nan nan nan nan nan nan nan nan nan nan nan nan nan nan nan nan nan nan nan nan nan nan nan nan nan nan nan nan nan nan nan nan nan nan nan nan nan nan nan nan nan nan nan nan
nan 8 7 8 8 23 21 13 12 6 11 10 6 9 15 9 8 10 13 10 9 11 12 11 9 7 7 11 13 11 13 9 7 8 9 10 14 8 8 8 9 10 12 nan
nan 9 8 8 8 22 24 12 12 11 13 8 4 8 7 13 15 6 8 12 11 7 9 15 12 6 6 12 9 10 13 9 12 13 14 15 13 10 5 5 9 8 15 nan
nan 9 8 6 10 22 27 11 11 9 6 3 8 13 9 8 10 11 14 11 10 14 12 9 9 10 7 6 8 10 11 11 10 10 9 10 14 14 8 2 4 8 13 nan
nan 9 8 8 11 25 24 8 8 10 8 6 7 10 12 6 3 16 12 5 8 16 12 9 12 9 7 10 10 9 12 12 5 5 6 8 11 13 12 8 7 6 6 nan
nan 8 9 10 11 23 15 12 11 9 6 10 13 8 6 4 9 14 6 8 9 7 6 9 11 13 13 12 12 10 14 12 6 8 9 11 15 15 9 8 13 11 7 nan
nan 8 8 10 10 16 14 11 12 10 9 6 9 8 7 7 12 11 10 15 13 5 6 12 11 8 7 10 12 12 12 7 10 9 8 11 11 13 17 12 11 8 8 nan
nan 7 7 9 13 12 13 10 11 10 8 10 5 9 12 13 15 11 9 11 11 10 13 14 10 7 5 4 7 12 13 13 10 10 10 12 12 10 14 9 12 17 10 nan
nan 7 7 8 9 14 15 11 10 9 11 9 7 13 14 11 12 10 9 7 10 13 11 11 9 10 12 10 6 7 10 9 10 13 11 7 12 12 8 10 14 16 9 nan
nan 8 8 8 8 15 16 10 11 10 11 1 6 12 9 9 10 11 5 7 14 12 11 11 12 8 11 11 11 9 8 10 12 9 9 12 10 9 9 13 14 9 2 nan
nan 7 8 8 9 15 16 11 11 10 8 8 4 2 3 5 6 5 9 15 10 10 9 10 10 9 11 10 11 12 11 11 10 9 13 13 10 7 9 13 8 5 8 nan
nan 7 8 8 11 15 13 12 12 11 8 5 11 15 18 12 3 5 9 11 9 13 14 11 11 11 6 11 14 10 8 8 10 9 11 12 7 8 13 9 9 12 14 nan
nan 8 7 9 11 11 11 12 10 12 9 13 17 13 23 28 15 2 3 7 10 9 10 10 12 11 12 12 9 11 14 10 7 12 10 4 6 10 9 9 12 15 13 nan
nan 7 7 8 10 11 14 14 11 9 10 13 9 6 4 16 23 16 1 -4 5 12 11 10 10 13 10 9 10 8 13 13 9 13 15 12 11 4 5 11 11 11 10 nan
nan 9 9 7 10 13 18 16 17 11 7 7 5 13 18 19 17 13 12 6 5 9 12 13 10 12 10 8 10 14 11 7 5 8 12 16 12 3 9 12 11 10 10 nan
nan 8 8 9 10 16 17 15 16 14 13 8 10 15 21 22 19 15 13 10 10 9 11 11 9 10 11 9 9 13 11 8 10 11 6 8 10 11 7 8 10 10 10 nan
nan 10 9 11 14 19 12 8 9 15 11 8 10 11 17 16 10 9 13 12 9 11 11 10 11 12 10 11 10 9 13 13 11 8 11 10 9 6 5 11 12 11 12 nan
nan 9 12 21 22 17 14 14 10 9 6 10 11 12 17 17 8 12 10 11 11 10 10 11 12 12 9 10 9 11 16 14 11 7 6 10 8 9 9 8 10 11 12 nan
nan 18 27 23 18 10 12 18 14 7 9 12 11 10 13 12 10 12 11 12 9 11 13 13 11 10 10 14 15 16 11 9 11 9 9 11 10 10 9 8 10 10 10 nan
nan 26 18 11 3 13 17 10 13 12 11 11 10 9 9 10 15 11 9 11 12 11 12 11 11 9 12 13 15 17 12 10 10 12 11 9 10 8 9 10 11 11 9 nan
nan 12 10 10 12 14 10 11 13 10 10 13 12 10 10 12 11 10 11 13 11 11 13 9 11 14 16 10 8 8 9 10 10 12 11 10 10 8 9 11 11 12 13 nan
nan 12 13 13 15 11 10 12 13 9 12 13 12 14 11 10 11 13 12 11 10 13 10 11 11 15 13 10 9 10 9 10 12 12 12 13 13 13 13 13 12 12 13 nan
nan 13 11 12 12 12 13 12 9 10 9 8 13 14 13 12 10 11 14 12 10 11 10 9 15 14 11 11 10 7 9 12 13 13 13 13 13 14 14 14 13 13 14 nan
nan 10 12 14 11 8 10 12 11 12 10 10 14 13 11 12 13 11 11 11 11 10 12 13 15 13 9 10 11 9 8 9 10 10 12 13 13 13 12 12 12 13 14 nan
nan 12 13 8 9 13 11 11 11 12 11 12 14 13 12 12 12 11 12 11 9 10 11 15 17 15 10 9 9 9 9 9 9 10 10 10 11 12 11 10 12 12 12 nan
nan 10 11 10 8 9 10 12 12 10 13 16 12 11 14 11 12 13 10 10 12 13 14 14 14 12 11 10 9 8 10 11 11 11 11 10 10 11 13 11 10 11 12 nan
nan nan nan nan nan nan nan nan nan nan nan nan nan nan nan nan nan nan nan nan nan nan nan nan nan nan nan nan nan nan nan nan nan nan nan nan nan nan nan nan nan nan nan nan
CAPE
13 15 12 12 10 18 2 2 22 0 0 5 5 19 1 1 6 1 1 2 2 0 2 7 3 5 0 0 0 0 0 3 13 2 0 2 3 1 0 23 1 0 0 0
9 18 9 8 4 3 12 4 0 0 3 13 2 8 12 3 8 12 4 2 0 0 0 0 1 0 0 0 0 0 0 3 8 3 0 0 0 0 0 0 0 0 0 0
4 19 9 8 0 0 7 3 1 2 5 4 6 8 1 21 20 16 0 0 0 0 0 0 0 0 0 0 0 0 0 0 0 0 0 0 0 0 0 0 0 0 0 0
4 15 7 4 1 0 4 4 4 7 15 3 7 2 6 25 23 19 2 5 0 0 0 0 0 0 0 0 0 0 0 0 0 0 0 0 0 0 0 0 0 0 0 0
4 3 16 3 1 0 0 17 9 3 5 3 3 2 12 7 35 9 6 3 0 0 0 0 0 0 0 0 0 0 0 0 0 0 0 0 0 0 0 0 0 0 0 0
0 1 13 12 3 0 0 9 18 19 0 2 3 14 14 6 26 20 1 1 9 0 0 0 0 0 0 0 0 0 0 0 0 0 0 0 0 0 0 0 0 0 0 0
0 0 5 24 13 0 6 10 30 26 2 8 6 12 10 7 15 34 5 1 10 0 0 0 1 0 0 0 0 0 0 0 0 0 0 0 0 0 0 0 0 0 0 0
0 0 0 18 25 16 14 8 13 11 7 3 1 4 6 2 6 21 16 2 0 0 0 22 17 12 5 10 0 0 0 0 0 0 0 0 0 0 0 0 2 0 0 0
0 1 0 0 21 33 14 14 11 10 8 3 0 4 4 9 9 25 16 9 0 0 8 9 12 12 2 3 3 2 0 0 2 0 0 0 12 0 0 0 7 0 0 0
4 2 4 0 5 22 27 34 3 20 13 0 3 8 13 10 8 6 14 2 3 0 20 16 11 10 0 4 3 4 6 2 4 0 0 0 0 0 0 8 17 0 0 0
2 2 8 2 8 32 25 28 24 22 17 2 0 0 2 2 4 9 0 13 6 23 16 6 4 4 2 1 0 0 1 2 0 0 0 0 0 0 12 2 0 1 0 0
5 8 11 12 15 30 18 36 25 20 38 3 0 0 0 0 0 5 0 1 23 10 25 10 0 6 0 0 6 0 0 0 0 0 0 0 0 0 0 0 0 0 0 0
5 5 16 19 19 7 30 48 53 51 37 8 0 0 0 0 0 0 0 20 6 28 0 12 8 10 0 8 3 0 0 0 0 0 0 0 0 0 0 0 0 0 0 0
0 1 14 27 28 20 20 45 51 61 44 24 0 0 2 4 0 0 0 0 0 2 30 49 35 16 0 6 2 0 1 0 0 0 0 0 0 0 0 0 0 0 0 0
18 8 3 18 23 11 35 37 31 44 54 20 5 0 0 0 0 1 0 0 0 5 42 53 34 35 5 3 0 0 0 0 0 3 0 0 0 0 0 0 0 0 0 0
11 12 0 22 21 26 36 12 11 15 43 75 20 0 0 1 0 2 0 0 2 10 53 32 56 10 18 15 8 0 0 0 0 0 0 0 0 0 0 0 0 0 0 0
7 5 9 28 38 61 36 13 23 5 26 40 16 5 2 0 14 11 5 3 12 30 55 47 31 36 15 21 16 0 0 0 0 0 0 0 0 0 0 0 0 0 0 0
2 21 32 6 3 14 14 33 6 37 15 25 10 8 11 36 40 42 39 18 15 35 23 25 22 15 13 22 1 1 0 0 0 0 0 0 0 0 0 0 0 0 0 0
14 16 0 24 21 28 17 4 28 50 20 46 48 38 22 16 20 37 10 15 13 14 18 12 21 19 6 2 3 5 0 0 0 0 0 0 0 0 0 0 0 0 0 0
0 4 25 3 6 8 18 25 11 6 12 36 25 4 23 25 12 22 2 10 11 18 3 16 19 31 5 0 0 0 0 0 0 0 0 0 0 0 0 0 0 0 0 0
1 0 5 2 0 16 13 28 33 19 25 12 10 5 23 10 10 8 9 1 1 6 13 18 43 8 2 0 0 0 0 0 0 1 2 2 2 3 2 0 0 0 1 0
9 20 15 10 6 16 18 18 21 24 1 16 19 16 12 12 14 4 3 8 2 10 4 10 7 0 0 0 0 0 0 0 0 0 0 1 1 1 1 1 2 0 0 0
5 11 5 15 15 14 9 10 7 21 5 2 3 3 18 12 8 3 2 6 5 5 13 3 0 0 0 0 0 1 1 2 1 1 1 1 1 1 2 2 1 0 0 0
3 15 1 8 13 13 23 17 17 6 3 2 5 1 6 3 3 4 6 7 3 13 9 1 2 0 0 1 0 1 2 3 2 4 5 5 4 6 9 7 4 2 1 0
1 7 5 6 7 9 5 7 6 3 3 4 3 3 4 0 0 0 2 9 9 2 4 5 7 0 0 2 1 1 1 2 2 4 3 4 4 5 6 7 3 3 2 1
5 2 5 2 8 12 5 10 7 5 4 4 1 2 3 6 8 7 17 7 5 8 4 5 6 6 1 0 0 0 0 0 0 0 0 1 1 1 0 3 2 2 1 1
0 2 4 0 1 3 1 0 0 6 6 7 4 8 5 6 9 0 8 11 6 0 0 4 5 2 2 0 0 0 0 0 0 0 0 0 0 0 0 0 2 0 0 1